Hourly Data Report for March 17, 2006

TORONTO CITY
ONTARIO

43°40'00.000" N
79°24'00.000" W
112.50 m
6158355
71508
XTO

Download Data

Hourly Data (March 2006)
Hourly Data Report for March 17, 2006
TIME
LST
Temp Definition
°C
Dew Point Definition
°C
Rel Hum Definition
%
Precip. Amount Definition
mm

Wind Dir Definition
10's deg

Wind Spd Definition
km/h
Visibility Definition
km
Stn Press Definition
kPa
Hmdx Definition


Wind Chill Definition


Weather Definition


00:00 -2.2 -8.5 62   LegendMM LegendMM   100.71     LegendNANA
01:00 -2.4 -11.0 52   LegendMM LegendMM   100.72     LegendNANA
02:00 -3.4 -12.1 51   LegendMM LegendMM   100.74     LegendNANA
03:00 -4.0 -12.0 54   LegendMM LegendMM   100.78     LegendNANA
04:00 -4.5 -12.4 54   LegendMM LegendMM   100.79     LegendNANA
05:00 -5.0 -13.1 53   LegendMM LegendMM   100.86     LegendNANA
06:00 -5.6 -13.3 55   LegendMM LegendMM   100.93     LegendNANA
07:00 -6.0 -13.2 57   LegendMM LegendMM   100.99     LegendNANA
08:00 -5.7 -13.4 55   LegendMM LegendMM   101.03     LegendNANA
09:00 -4.0 -14.3 45   LegendMM LegendMM   101.06     LegendNANA
10:00 -2.2 -14.8 37   LegendMM LegendMM   101.03     LegendNANA
11:00 -0.7 -12.8 39   LegendMM LegendMM   101.02     LegendNANA
12:00 -0.8 -15.2 33   LegendMM LegendMM   101.00     LegendNANA
13:00 0.3 -13.8 34   LegendMM LegendMM   100.96     LegendNANA
14:00 1.2 -12.9 34   LegendMM LegendMM   100.89     LegendNANA
15:00 0.9 -13.1 34   LegendMM LegendMM   100.87     LegendNANA
16:00 0.8 -13.7 33   LegendMM LegendMM   100.85     LegendNANA
17:00 0.1 -13.0 37   LegendMM LegendMM   100.87     LegendNANA
18:00 -0.8 -11.8 43   LegendMM LegendMM   100.87     LegendNANA
19:00 -2.0 -12.6 44   LegendMM LegendMM   100.89     LegendNANA
20:00 -2.5 -11.7 49   LegendMM LegendMM   100.89     LegendNANA
21:00 -2.8 -11.2 52   LegendMM LegendMM   100.88     LegendNANA
22:00 -3.2 -10.8 56   LegendMM LegendMM   100.85     LegendNANA
23:00 -3.6 -11.0 56   LegendMM LegendMM   100.82     LegendNANA

Notes on Data Quality.

Legend

  • E = Estimated
  • M = Missing
  • NA = Not Available*
  • [empty] = Indicates an unobserved value
Date modified: